Danville, IN

4:31 PM EDT on April 29, 2017 (GMT -0400)
Vermilion County

Weather History for KDNV - May, 2013

Change the Weather History Date:

Tuesday, May 21, 2013

  Actual Average (KLAF) Record (KLAF)
Temperature  
Mean Temperature 75 °F -  
Max Temperature 86 °F 76 °F 91 °F (1970)
Min Temperature 64 °F 50 °F 32 °F (2002)
Cooling Degree Days 10    
Growing Degree Days 25 (Base 50)    
Moisture  
Dew Point 64 °F    
Average Humidity 71    
Maximum Humidity 92    
Minimum Humidity 42    
Precipitation  
Precipitation 0.00 in - - ()
Sea Level Pressure  
Sea Level Pressure 29.75 in    
Wind  
Wind Speed 16 mph (SSW)    
Max Wind Speed 25 mph    
Max Gust Speed 39 mph    
Visibility 8 miles    
Events Rain    
Averages and records for this station are not official NWS values.
T = Trace of Precipitation, MM = Missing Value Source: NWS Daily Summary

Daily Weather History Graph

Daily Weather History Graph

Search for Another Location

Airport or City:

Trip Planner

Search our weather history database for the weather conditions in past years. The results will help you decide how hot, cold, wet, or windy it might be!

Date:

Astronomy

May. 21, 2013 Rise Set
Actual Time 5:29 AM CDT 8:05 PM CDT
Civil Twilight 4:58 AM CDT 8:36 PM CDT
Nautical Twilight 4:18 AM CDT 9:15 PM CDT
Astronomical Twilight 3:35 AM CDT 9:59 PM CDT
Moon 4:18 PM CDT (5/21) 2:57 AM CDT (5/21)
Length of Visible Light 15h 38m
Length of Day
14h 35m
Waxing Gibbous, 84% of the Moon is Illuminated
May 21
Waxing Gibbous
May 24
Full
May 31
Last Quarter
Jun 8
New
Jun 16
First Quarter

Hourly Weather History & Observations

Time (CDT) Temp. Heat Index Dew Point Humidity Pressure Visibility Wind Dir Wind Speed Gust Speed Precip Events Conditions
12:15 AM 78.8 °F - 67.8 °F 69% 29.74 in 7.0 mi SSE 19.6 mph 27.6 mph N/A   Clear
12:35 AM 78.8 °F - 68.0 °F 69% 29.73 in 7.0 mi South 19.6 mph 27.6 mph N/A   Clear
12:55 AM 68.9 °F - 64.4 °F 86% 29.79 in 4.0 mi WSW 25.3 mph 39.1 mph N/A Rain Heavy Rain
1:15 AM 67.1 °F - 64.4 °F 91% 29.79 in 10.0 mi West 19.6 mph 31.1 mph N/A Rain Light Rain
1:35 AM 66.2 °F - 63.0 °F 89% 29.80 in 10.0 mi WSW 20.7 mph 28.8 mph N/A Rain Light Rain
1:55 AM 65.7 °F - 62.2 °F 89% 29.82 in 10.0 mi WSW 18.4 mph 32.2 mph N/A Rain Light Rain
2:15 AM 65.3 °F - 62.1 °F 89% 29.81 in 10.0 mi SW 16.1 mph - N/A Rain Rain
2:35 AM 64.9 °F - 61.9 °F 90% 29.79 in 10.0 mi South 12.7 mph - N/A Rain Light Rain
2:55 AM 64.6 °F - 61.9 °F 91% 29.77 in 10.0 mi SSW 13.8 mph - N/A Rain Light Rain
3:15 AM 64.6 °F - 62.1 °F 92% 29.73 in 10.0 mi SW 4.6 mph - N/A Rain Light Rain
3:35 AM 64.4 °F - 61.9 °F 92% 29.72 in 10.0 mi SSW 5.8 mph - N/A Rain Light Rain
3:55 AM 64.9 °F - 61.9 °F 90% 29.74 in 10.0 mi South 9.2 mph - N/A   Clear
4:15 AM 64.4 °F - 61.7 °F 91% 29.76 in 10.0 mi South 11.5 mph - N/A   Clear
4:35 AM 64.6 °F - 61.9 °F 91% 29.77 in 10.0 mi South 9.2 mph - N/A   Clear
4:55 AM 65.3 °F - 62.1 °F 89% 29.76 in 10.0 mi SSW 15.0 mph 18.4 mph N/A   Clear
5:15 AM 66.6 °F - 61.9 °F 85% 29.76 in 10.0 mi SSW 12.7 mph - N/A Rain Light Rain
5:35 AM 66.7 °F - 61.9 °F 84% 29.77 in 10.0 mi SSW 13.8 mph 18.4 mph N/A Rain Light Rain
5:55 AM 66.2 °F - 62.2 °F 87% 29.78 in 10.0 mi South 15.0 mph 23.0 mph N/A Rain Light Rain
6:15 AM 65.7 °F - 62.6 °F 90% 29.78 in 10.0 mi South 10.4 mph - N/A   Clear
6:35 AM 65.5 °F - 62.6 °F 90% 29.76 in 10.0 mi South 9.2 mph - N/A   Clear
6:55 AM 65.8 °F - 62.6 °F 89% 29.75 in 10.0 mi SSE 6.9 mph - N/A   Clear
7:15 AM 66.2 °F - 62.8 °F 89% 29.77 in 10.0 mi South 13.8 mph 18.4 mph N/A   Scattered Clouds
7:35 AM 66.2 °F - 63.1 °F 90% 29.78 in 10.0 mi South 13.8 mph 19.6 mph N/A   Scattered Clouds
7:55 AM 66.4 °F - 63.5 °F 90% 29.79 in 10.0 mi South 15.0 mph 24.2 mph N/A   Mostly Cloudy
8:15 AM 66.7 °F - 63.5 °F 89% 29.80 in 10.0 mi South 19.6 mph 24.2 mph N/A   Scattered Clouds
8:35 AM 68.4 °F - 64.8 °F 88% 29.79 in 10.0 mi South 19.6 mph 26.5 mph N/A   Scattered Clouds
8:55 AM 70.0 °F - 65.5 °F 86% 29.79 in 10.0 mi South 16.1 mph 24.2 mph N/A   Clear
9:15 AM 71.2 °F - 65.5 °F 82% 29.79 in 10.0 mi South 18.4 mph 23.0 mph N/A   Clear
9:35 AM 71.2 °F - 65.8 °F 83% 29.80 in 10.0 mi South 16.1 mph - N/A   Scattered Clouds
9:55 AM 72.7 °F - 66.4 °F 81% 29.79 in 7.0 mi South 19.6 mph 25.3 mph N/A   Scattered Clouds
10:15 AM 73.2 °F - 66.2 °F 79% 29.79 in 7.0 mi SSW 17.3 mph 23.0 mph N/A   Scattered Clouds
10:35 AM 74.8 °F - 65.8 °F 73% 29.77 in 7.0 mi SW 18.4 mph 24.2 mph N/A   Scattered Clouds
10:55 AM 75.2 °F - 65.7 °F 72% 29.77 in 7.0 mi South 19.6 mph 25.3 mph N/A   Scattered Clouds
11:15 AM 76.1 °F - 66.0 °F 71% 29.77 in 5.0 mi SSW 19.6 mph - N/A   Haze
11:35 AM 77.0 °F - 65.5 °F 67% 29.77 in 5.0 mi South 21.9 mph - N/A   Haze
11:55 AM 78.3 °F - 65.5 °F 65% 29.77 in 5.0 mi SSW 19.6 mph 27.6 mph N/A   Haze
12:15 PM 79.3 °F - 65.5 °F 62% 29.76 in 7.0 mi SSW 20.7 mph 26.5 mph N/A   Scattered Clouds
12:35 PM 79.9 °F - 65.1 °F 61% 29.75 in 7.0 mi SSW 20.7 mph 26.5 mph N/A   Scattered Clouds
12:55 PM 81.7 °F 83.5 °F 65.1 °F 57% 29.74 in 7.0 mi SW 19.6 mph 25.3 mph N/A   Scattered Clouds
1:15 PM 82.9 °F 84.4 °F 64.0 °F 53% 29.74 in 5.0 mi WSW 19.6 mph - N/A   Haze
1:35 PM 83.5 °F 84.5 °F 62.8 °F 50% 29.74 in 5.0 mi WSW 15.0 mph 20.7 mph N/A   Haze
1:55 PM 85.1 °F 85.2 °F 61.2 °F 44% 29.74 in 7.0 mi SW 17.3 mph 23.0 mph N/A   Clear
2:15 PM 86.2 °F 86.1 °F 60.6 °F 42% 29.74 in 7.0 mi SSW 19.6 mph 25.3 mph N/A   Clear
2:35 PM 85.3 °F 86.1 °F 62.8 °F 47% 29.74 in 7.0 mi SSW 24.2 mph 29.9 mph N/A   Clear
2:55 PM 85.8 °F 86.8 °F 63.5 °F 47% 29.74 in 7.0 mi SSW 20.7 mph 28.8 mph N/A   Clear
3:15 PM 85.8 °F 86.6 °F 63.0 °F 46% 29.74 in 7.0 mi SSW 18.4 mph 26.5 mph N/A   Scattered Clouds
3:35 PM 85.5 °F 86.3 °F 63.0 °F 47% 29.73 in 7.0 mi SSW 23.0 mph 32.2 mph N/A   Scattered Clouds
3:55 PM 86.0 °F 86.6 °F 62.2 °F 45% 29.73 in 7.0 mi SSW 18.4 mph 29.9 mph N/A   Clear
4:15 PM 85.1 °F 85.7 °F 62.2 °F 46% 29.72 in 7.0 mi SSW 18.4 mph 26.5 mph N/A   Clear
4:35 PM 84.9 °F 85.4 °F 62.1 °F 46% 29.72 in 7.0 mi SSW 20.7 mph 25.3 mph N/A   Clear
4:55 PM 85.1 °F 85.4 °F 61.3 °F 45% 29.71 in 7.0 mi SW 19.6 mph 25.3 mph N/A   Clear
5:15 PM 84.9 °F 85.2 °F 61.3 °F 45% 29.71 in 7.0 mi SSW 17.3 mph 23.0 mph N/A   Clear
5:35 PM 84.6 °F 84.6 °F 60.6 °F 44% 29.70 in 7.0 mi SW 16.1 mph 20.7 mph N/A   Clear
5:55 PM 84.2 °F 84.4 °F 60.4 °F 45% 29.70 in 7.0 mi SSW 15.0 mph 20.7 mph N/A   Clear
6:15 PM 83.7 °F 83.8 °F 60.4 °F 45% 29.69 in 7.0 mi SW 13.8 mph - N/A   Clear
6:35 PM 83.1 °F 83.3 °F 60.1 °F 46% 29.70 in 7.0 mi SW 13.8 mph - N/A   Clear
6:55 PM 82.6 °F 82.9 °F 60.3 °F 47% 29.70 in 7.0 mi SW 13.8 mph - N/A   Clear
7:15 PM 81.7 °F 82.9 °F 63.1 °F 53% 29.70 in 7.0 mi South 11.5 mph 19.6 mph N/A   Clear
7:35 PM 80.4 °F 81.7 °F 63.0 °F 55% 29.70 in 10.0 mi South 12.7 mph 18.4 mph N/A   Scattered Clouds
7:55 PM 79.2 °F - 63.0 °F 57% 29.71 in 7.0 mi South 16.1 mph - N/A   Scattered Clouds
8:15 PM 78.1 °F - 62.8 °F 59% 29.72 in 7.0 mi South 11.5 mph - N/A   Scattered Clouds
8:35 PM 77.2 °F - 64.2 °F 64% 29.73 in 10.0 mi SSW 15.0 mph 19.6 mph N/A   Mostly Cloudy
8:55 PM 76.3 °F - 64.6 °F 67% 29.74 in 10.0 mi South 10.4 mph - N/A   Mostly Cloudy
9:15 PM 75.6 °F - 64.8 °F 69% 29.74 in 10.0 mi South 11.5 mph - N/A   Scattered Clouds
9:35 PM 75.2 °F - 64.9 °F 70% 29.75 in 10.0 mi South 10.4 mph - N/A   Clear
9:55 PM 74.3 °F - 65.8 °F 75% 29.74 in 10.0 mi South 11.5 mph - N/A Rain Rain
10:15 PM 72.5 °F - 66.6 °F 82% 29.73 in 7.0 mi South 9.2 mph - N/A Rain Heavy Rain
10:35 PM 72.1 °F - 66.7 °F 83% 29.72 in 7.0 mi South 6.9 mph - N/A Rain Rain
10:55 PM 72.0 °F - 66.4 °F 83% 29.71 in 10.0 mi South 8.1 mph - N/A Rain Rain
11:15 PM 72.0 °F - 66.4 °F 83% 29.71 in 7.0 mi SSE 11.5 mph - N/A Rain Rain
11:35 PM 72.1 °F - 66.2 °F 82% 29.71 in 10.0 mi SSE 10.4 mph - N/A Rain Rain
11:55 PM 71.8 °F - 65.8 °F 81% 29.72 in 10.0 mi SSE 12.7 mph - N/A Rain Rain